Location: B?lite?ti
(46.2833°N, 22.7333°E)
Time: 04:25:55
(UTC+00:00)

CZ-2C R/B - Pass Details

Date: 24 January 2021
Orbit: 785 x 870 km, 98.2° (Epoch: 26 February)

Event Time Altitude Azimuth Distance (km) Brightness Sun altitude
Exits shadow 18:10:30 51° 356° (N) 1,080 3.2 -28.9°
Maximum altitude 18:11:55 74° 287° (WNW) 901 2.8 -29.2°
Drops below altitude 10° 18:17:30 10° 203° (SSW) 2,509 5.3 -30.1°
Sets 18:19:53 0° 201° (SSW) 3,444 6.1 -30.5°
